This demonstration page uses our WeatherBlox Daily Observations layout. Learn more.

Left ArrowRight Arrow

44.8408, -93.29828

Hourly Observations for October 10, 2021

Temp ( °F °C ) Dew Point ( °F °C ) Humidity (%) Winds ( mph kmh ) Pressure ( in mb ) Visibility ( mi km ) Precip ( " mm )
12:53 am 00:53 Cloudy with Light Rain 70 21.1 61 16.1 73 73 SE 14 22 29.52 1000 10 16 0.00 0.00
1:53 am 01:53 Cloudy 70 21.1 61 16.1 73 73 SSE 12 19 29.50 999 10 16 0.00 0.00
2:53 am 02:53 Partly Cloudy 68 20 62 16.7 81 81 SSE 7 11 29.50 999 10 16 N/A
3:53 am 03:53 Partly Cloudy 68 20 62 16.7 81 81 SE 7 11 29.49 999 10 16 N/A
4:53 am 04:53 Partly Cloudy 66 18.9 62 16.7 87 87 SSE 6 9 29.49 999 10 16 N/A
5:53 am 05:53 Partly Cloudy 64 17.8 62 16.7 93 93 SSE 6 9 29.49 999 9 14 N/A
6:53 am 06:53 Mostly Clear 64 17.8 62 16.7 93 93 S 8 13 29.49 999 8 13 N/A
7:53 am 07:53 Partly Cloudy with Mist and Fog 64 17.8 61 16.1 90 90 SSW 6 9 29.48 998 6 10 N/A
8:53 am 08:53 Partly Cloudy 64 17.8 61 16.1 90 90 S 8 13 29.49 999 7 11 N/A
9:10 am 09:10 Partly Cloudy 65 18.3 61 16.1 87 87 SSW 6 9 29.49 999 9 14 N/A
9:26 am 09:26 Mostly Cloudy 65 18.3 60 15.6 84 84 SW 7 11 29.50 999 10 16 N/A
9:53 am 09:53 Cloudy 65 18.3 58 14.4 78 78 WSW 12 19 29.51 999 10 16 N/A
10:46 am 10:46 Partly Cloudy 65 18.3 57 13.9 76 76 SW 15 24 29.50 999 10 16 N/A
10:53 am 10:53 Partly Cloudy 65 18.3 57 13.9 76 76 SW 12 19 29.51 999 10 16 N/A
11:53 am 11:53 Mostly Cloudy 66 18.9 54 12.2 65 65 SW 13 20 29.51 999 10 16 N/A
12:05 pm 12:05 Partly Cloudy 67 19.4 54 12.2 63 63 SW 14 22 29.50 999 10 16 N/A
12:53 pm 12:53 Partly Cloudy 68 20 54 12.2 61 61 SW 16 26 29.50 999 10 16 N/A
1:53 pm 13:53 Partly Cloudy 68 20 53 11.7 59 59 WSW 18 30 29.50 999 10 16 N/A
2:53 pm 14:53 Partly Cloudy 69 20.6 51 10.6 53 53 SW 18 30 29.50 999 10 16 N/A
3:53 pm 15:53 Partly Cloudy 68 20 50 10 53 53 WSW 17 28 29.49 999 10 16 N/A
4:53 pm 16:53 Mostly Cloudy 66 18.9 50 10 56 56 SW 21 33 29.52 1000 10 16 N/A
5:53 pm 17:53 Mostly Cloudy 63 17.2 48 8.9 58 58 SW 17 28 29.54 1000 10 16 N/A
6:53 pm 18:53 Cloudy 61 16.1 48 8.9 63 63 WSW 21 33 29.57 1002 10 16 N/A
7:53 pm 19:53 Cloudy 60 15.6 46 7.8 60 60 WSW 9 15 29.60 1002 10 16 N/A
8:53 pm 20:53 Cloudy 60 15.6 46 7.8 60 60 SW 17 28 29.60 1002 10 16 N/A
9:53 pm 21:53 Partly Cloudy 58 14.4 46 7.8 65 65 WSW 10 17 29.62 1003 10 16 N/A
10:53 pm 22:53 Partly Cloudy 56 13.3 46 7.8 70 70 WSW 10 17 29.62 1003 10 16 N/A
11:53 pm 23:53 Mostly Clear 54 12.2 46 7.8 75 75 W 12 19 29.62 1003 10 16 N/A

Powered by AerisWeather